(467054) = 2010 VK208 = 2014 OZ232 = 2016 DP6

Discovered at Catalina on 2010-10-09 by CSS.

Orbit

Orbit type: Main Belt

Note: WebGL enabled browser required.

epoch2023-09-13.0
epoch JD2460200.5
perihelion date2019-10-02.30179
perihelion JD2458758.80179
argument of perihelion (°)103.23111
ascending node (°)341.66830
inclination (°)13.11970
eccentricity0.1796339
perihelion distance (AU)2.1492085
Tisserand w.r.t. Jupiter3.3
ΔV w.r.t. Earth (km/sec)10.0
semimajor axis (AU)2.6198162
mean anomaly (°)335.09810
mean daily motion (°/day)0.23243290
aphelion distance (AU)3.090
period (years)4.24
P-vector [x]0.08091290
P-vector [y]0.80382642
P-vector [z]0.58933538
Q-vector [x]-0.99416116
Q-vector [y]0.10743689
Q-vector [z]-0.01004547
absolute magnitude17.37
phase slope0.15
uncertainty0
referenceMPEC 2023-X242
observations used200
oppositions8
arc length (days)4811
first opposition used2010
last opposition used2023
residual rms (arc-secs)0.73
perturbers coarse indicatorM-v
perturbers precise indicator003Ek
first observation date used2010-10-09.0
last observation date used2023-12-11.0
computer nameMPCLINUX
Minimum Orbit Intersection Distances (in AU)
for orbit epoch: 2460200.5, reference: E2023-XO2
Mercury1.84438
Venus1.45283
Earth1.20768
Mars0.61848
Jupiter2.21011
Saturn6.91779
Uranus15.848
Neptune27.2666

Observations

204 total observations over interval: 2010 10 09.35028 – 2023 12 11.260727
These data are available for download (format description).

Date (UT) J2000 RA J2000 Dec Magn Location Ref
2010 10 09.35028 01 31 37.56 +26 09 47.4 21.2 V 703 – Catalina Sky Survey MPS 690386
2010 10 09.35953 01 31 36.80 +26 09 46.8 20.2 V 703 – Catalina Sky Survey MPS 690386
2010 10 09.36875 01 31 36.30 +26 09 47.3 20.5 V 703 – Catalina Sky Survey MPS 690386
2010 10 09.37802 01 31 35.54 +26 09 48.4 19.9 V 703 – Catalina Sky Survey MPS 690386
2010 11 04.08829 01 03 50.35 +25 46 39.4 20.4 r I41 – Palomar Mountain--ZTF MPS 439664
2010 11 04.16744 01 03 45.78 +25 46 24.7 20.5 r I41 – Palomar Mountain--ZTF MPS 439664
2010 11 04.24768 01 03 41.09 +25 46 09.4 20.2 r I41 – Palomar Mountain--ZTF MPS 439664
2010 11 06.10077 01 02 00.65 +25 39 51.8 20.5 r I41 – Palomar Mountain--ZTF MPS 439664
2010 11 06.18271 01 01 56.17 +25 39 35.5 20.5 r I41 – Palomar Mountain--ZTF MPS 439664
2010 11 06.26322 01 01 51.70 +25 39 18.8 20.2 r I41 – Palomar Mountain--ZTF MPS 439664
2010 11 06.34434 01 01 47.24 +25 39 01.4 20.3 r I41 – Palomar Mountain--ZTF MPS 439664
2012 02 27.47265 12 34 38.107 -10 30 27.61 21.5 w F51 – Pan-STARRS 1, Haleakala MPS 690386
2012 02 27.50221 12 34 36.745 -10 30 31.35 21.4 w F51 – Pan-STARRS 1, Haleakala MPS 690386
2012 02 27.51698 12 34 36.064 -10 30 33.08 21.5 w F51 – Pan-STARRS 1, Haleakala MPS 690386
2012 03 16.50257 12 18 17.314 -10 41 51.51 21.0 r F51 – Pan-STARRS 1, Haleakala MPS 690386
2012 03 16.52717 12 18 15.760 -10 41 50.19 20.8 i F51 – Pan-STARRS 1, Haleakala MPS 690386
2012 03 16.53996 12 18 14.932 -10 41 49.73 21.0 i F51 – Pan-STARRS 1, Haleakala MPS 690386
2012 03 24.31913 12 10 08.00 -10 31 59.5 20.4 V G96 – Mt. Lemmon Survey MPS 690386
2012 03 24.32610 12 10 07.53 -10 31 57.9 20.5 V G96 – Mt. Lemmon Survey MPS 690386
2012 03 24.33309 12 10 07.10 -10 31 57.1 20.9 V G96 – Mt. Lemmon Survey MPS 690386
2012 03 24.34007 12 10 06.63 -10 31 57.0 20.6 V G96 – Mt. Lemmon Survey MPS 690386
2012 04 14.33040 11 50 23.005 -09 42 13.67 21.1 w F51 – Pan-STARRS 1, Haleakala MPS 690386
2012 04 14.34525 11 50 22.292 -09 42 11.31 21.2 w F51 – Pan-STARRS 1, Haleakala MPS 690386
2012 04 14.36011 11 50 21.577 -09 42 09.06 21.2 w F51 – Pan-STARRS 1, Haleakala MPS 690386
2012 04 14.37494 11 50 20.868 -09 42 06.70 21.1 w F51 – Pan-STARRS 1, Haleakala MPS 690386
2014 07 27.57149 00 10 10.402 +01 48 02.35 21.8 w F51 – Pan-STARRS 1, Haleakala MPS 524281
2014 07 27.58228 00 10 10.408 +01 48 05.45 21.7 w F51 – Pan-STARRS 1, Haleakala MPS 524281
2014 07 27.59304 00 10 10.393 +01 48 08.81 21.7 w F51 – Pan-STARRS 1, Haleakala MPS 524281
2014 07 30.56656 00 10 08.519 +02 02 23.08 21.8 w F51 – Pan-STARRS 1, Haleakala MPS 524281
2014 07 30.57899 00 10 08.470 +02 02 26.42 22.1 w F51 – Pan-STARRS 1, Haleakala MPS 524281
2014 07 30.59148 00 10 08.427 +02 02 30.00 21.8 w F51 – Pan-STARRS 1, Haleakala MPS 524281
2014 07 30.60402 00 10 08.363 +02 02 33.54 21.7 w F51 – Pan-STARRS 1, Haleakala MPS 524281
2014 08 28.26063 23 58 09.26 +03 28 58.2 21.1 V 691 – Steward Observatory, Kitt Peak-Spacewatch MPS 690386
2014 08 28.28110 23 58 08.25 +03 28 59.6 21.0 V 691 – Steward Observatory, Kitt Peak-Spacewatch MPS 690386
2014 08 28.30156 23 58 07.25 +03 29 01.5 21.3 V 691 – Steward Observatory, Kitt Peak-Spacewatch MPS 690386
2014 08 31.42537 23 55 35.455 +03 32 29.90 19.5 w F51 – Pan-STARRS 1, Haleakala MPS 690386
2014 08 31.43709 23 55 34.841 +03 32 30.45 19.6 w F51 – Pan-STARRS 1, Haleakala MPS 690386
2014 08 31.44889 23 55 34.222 +03 32 31.17 19.5 w F51 – Pan-STARRS 1, Haleakala MPS 690386
2014 09 12.24135 23 44 29.95 +03 35 49.6 21.1 V 691 – Steward Observatory, Kitt Peak-Spacewatch MPS 690386
2014 09 12.26185 23 44 28.66 +03 35 49.4 20.9 V 691 – Steward Observatory, Kitt Peak-Spacewatch MPS 690386
2014 09 12.28234 23 44 27.35 +03 35 48.7 21.0 V 691 – Steward Observatory, Kitt Peak-Spacewatch MPS 690386
2014 09 24.30889 23 31 55.65 +03 26 43.3 20.1 V G96 – Mt. Lemmon Survey MPS 690386
2014 09 24.31548 23 31 55.23 +03 26 43.1 19.9 V G96 – Mt. Lemmon Survey MPS 690386
2014 09 24.32208 23 31 54.78 +03 26 42.4 20.0 V G96 – Mt. Lemmon Survey MPS 690386
2014 09 24.32868 23 31 54.38 +03 26 42.0 20.4 V G96 – Mt. Lemmon Survey MPS 690386
2014 10 01.44951 23 24 43.513 +03 18 16.25 20.7 w F51 – Pan-STARRS 1, Haleakala MPS 690386
2014 10 01.46104 23 24 42.826 +03 18 15.35 20.7 w F51 – Pan-STARRS 1, Haleakala MPS 690386
2014 10 01.47261 23 24 42.126 +03 18 14.49 20.6 w F51 – Pan-STARRS 1, Haleakala MPS 690386
2016 02 17.20285 10 51 56.90 +09 59 23.1 20.3 r G45 – Space Surveillance Telescope, Atom Site MPS 721336
2016 02 17.20817 10 51 56.52 +09 59 23.7 19.9 r G45 – Space Surveillance Telescope, Atom Site MPS 721336
2016 02 17.21302 10 51 56.18 +09 59 24.0 20.6 r G45 – Space Surveillance Telescope, Atom Site MPS 721336
2016 02 17.21790 10 51 55.87 +09 59 23.3 19.7 r G45 – Space Surveillance Telescope, Atom Site MPS 721336
2016 02 26.50483 10 41 41.786 +09 58 39.88 19.9 r F51 – Pan-STARRS 1, Haleakala MPS 686975
2016 02 26.51652 10 41 40.983 +09 58 39.57 20.0 r F51 – Pan-STARRS 1, Haleakala MPS 686975
2016 02 26.52819 10 41 40.175 +09 58 39.32 20.0 r F51 – Pan-STARRS 1, Haleakala MPS 686975
2016 02 27.33611 10 40 46.17 +09 58 31.3 19.6 V G96 – Mt. Lemmon Survey MPS 686975
2016 02 27.34178 10 40 45.77 +09 58 31.1 19.8 V G96 – Mt. Lemmon Survey MPS 686975
2016 02 27.34744 10 40 45.39 +09 58 31.0 19.9 V G96 – Mt. Lemmon Survey MPS 686975
2016 02 27.35311 10 40 44.99 +09 58 31.0 19.8 V G96 – Mt. Lemmon Survey MPS 686975
2016 03 05.99677 10 32 22.31 +09 56 08.8 21.1   J43 – Oukaimeden Observatory, Marrakech MPS 690386
2016 03 06.00538 10 32 21.77 +09 56 08.5 20.6   J43 – Oukaimeden Observatory, Marrakech MPS 690386
2016 03 06.01395 10 32 21.16 +09 56 08.3 20.6   J43 – Oukaimeden Observatory, Marrakech MPS 690386
2016 03 06.02252 10 32 20.65 +09 56 08.0 20.6   J43 – Oukaimeden Observatory, Marrakech MPS 690386
2016 03 06.32942 10 32 01.333 +09 55 59.32 20.3 w F51 – Pan-STARRS 1, Haleakala MPS 690386
2016 03 06.34113 10 32 00.566 +09 55 58.93 20.3 w F51 – Pan-STARRS 1, Haleakala MPS 690386
2016 03 06.35280 10 31 59.798 +09 55 58.62 20.3 w F51 – Pan-STARRS 1, Haleakala MPS 690386
2016 03 06.36452 10 31 59.035 +09 55 58.35 20.3 w F51 – Pan-STARRS 1, Haleakala MPS 690386
2016 03 07.00028 10 31 18.74 +09 55 37.3 20.4   J43 – Oukaimeden Observatory, Marrakech MPS 690386
2016 03 07.00872 10 31 18.18 +09 55 36.7 20.8   J43 – Oukaimeden Observatory, Marrakech MPS 690386
2016 03 07.01715 10 31 17.62 +09 55 36.1 20.5   J43 – Oukaimeden Observatory, Marrakech MPS 690386
2016 03 07.02559 10 31 17.08 +09 55 36.0 20.5   J43 – Oukaimeden Observatory, Marrakech MPS 690386
2016 03 08.29960 10 29 57.859 +09 54 50.84 20.4 w F51 – Pan-STARRS 1, Haleakala MPS 690386
2016 03 08.31121 10 29 57.114 +09 54 50.51 20.4 w F51 – Pan-STARRS 1, Haleakala MPS 690386
2016 03 08.32285 10 29 56.365 +09 54 50.16 20.4 w F51 – Pan-STARRS 1, Haleakala MPS 690386
2016 03 08.34253 10 29 55.121 +09 54 49.49 20.3 w F51 – Pan-STARRS 1, Haleakala MPS 690386
2016 03 08.98024 10 29 15.74 +09 54 23.2 20.5   J43 – Oukaimeden Observatory, Marrakech MPS 690386
2016 03 08.98864 10 29 15.22 +09 54 22.6 20.4   J43 – Oukaimeden Observatory, Marrakech MPS 690386
2016 03 08.99703 10 29 14.68 +09 54 23.0 20.8   J43 – Oukaimeden Observatory, Marrakech MPS 690386
2016 03 09.00543 10 29 14.16 +09 54 21.9 21.5   J43 – Oukaimeden Observatory, Marrakech MPS 690386
2016 03 10.31153 10 27 55.318 +09 53 25.45 20.4 w F51 – Pan-STARRS 1, Haleakala MPS 690386
2016 03 10.32171 10 27 54.687 +09 53 25.08 20.5 w F51 – Pan-STARRS 1, Haleakala MPS 690386
2016 03 10.33183 10 27 54.066 +09 53 24.60 20.4 w F51 – Pan-STARRS 1, Haleakala MPS 690386
2016 03 10.34199 10 27 53.433 +09 53 24.14 20.5 w F51 – Pan-STARRS 1, Haleakala MPS 690386
2016 03 16.24452 10 22 20.73 +09 47 27.5 20.7 V G96 – Mt. Lemmon Survey MPS 692797
2016 03 16.24862 10 22 20.49 +09 47 27.0 20.5 V G96 – Mt. Lemmon Survey MPS 692797
2016 03 16.25272 10 22 20.27 +09 47 26.6 20.6 V G96 – Mt. Lemmon Survey MPS 692797
2016 03 16.25682 10 22 20.05 +09 47 26.2 20.8 V G96 – Mt. Lemmon Survey MPS 692797
2016 03 28.27346 10 13 40.531 +09 26 17.76 20.9 w F51 – Pan-STARRS 1, Haleakala MPS 696067
2016 03 28.28650 10 13 40.069 +09 26 15.91 20.9 w F51 – Pan-STARRS 1, Haleakala MPS 696067
2016 03 28.29960 10 13 39.620 +09 26 14.17 20.9 w F51 – Pan-STARRS 1, Haleakala MPS 696067
2016 04 04.16866 10 10 32.69 +09 08 19.4 20.8 V G96 – Mt. Lemmon Survey MPS 698879
2016 04 04.17390 10 10 32.55 +09 08 18.3 21.3 V G96 – Mt. Lemmon Survey MPS 698879
